Location: ?????
(33.6267°N, 35.4675°E)
Time: 04:37:31
(UTC+00:00)

Cosmos 1697 Rocket - Pass Details

Date: 12 November 2019
Orbit: 833 x 842 km, 71.0° (Epoch: 09 December)

Event Time Altitude Azimuth Distance (km) Brightness Sun altitude
Rises 16:33:53 0° 208° (SSW) 3,383 6.3 -24.4°
Reaches altitude 10° 16:36:20 10° 212° (SSW) 2,451 5.5 -24.9°
Maximum altitude 16:41:54 62° 293° (WNW) 945 3.1 -26.0°
Enters shadow 16:44:59 27° 5° (N) 1,573 4.0 -26.7°
